GFSFLT2_prec_precacc24_129.txt.gz
Total_Precipitation_Accumulation
0.00 0.00 0.00 0.00 0.00 0.00 0.00 0.00 0.00 0.00 0.00 0.00 0.01 0.03 0.01 0.00 0.02 0.04 0.02 0.03 0.02 0.00 0.00 0.00 0.00 0.00 0.00 0.02 0.13 0.30 0.38 0.49
0.00 0.01 0.00 0.00 0.00 0.00 0.00 0.00 0.00 0.00 0.00 0.00 0.00 0.03 0.01 0.00 0.00 0.02 0.05 0.04 0.00 0.00 0.00 0.00 0.00 0.01 0.03 0.13 0.25 0.44 0.33 0.47
0.01 0.01 0.01 0.00 0.00 0.00 0.00 0.00 0.00 0.00 0.00 0.00 0.00 0.00 0.00 0.00 0.00 0.03 0.09 0.04 0.01 0.00 0.00 0.00 0.00 0.00 0.10 0.42 0.34 0.30 0.40 0.41
0.00 0.01 0.05 0.04 0.00 0.00 0.00 0.00 0.00 0.00 0.00 0.00 0.00 0.01 0.03 0.02 0.00 0.00 0.01 0.03 0.01 0.00 0.00 0.00 0.00 0.00 0.01 0.13 0.26 0.58 0.67 0.72
0.00 0.00 0.04 0.12 0.13 0.04 0.00 0.00 0.00 0.00 0.00 0.01 0.01 0.02 0.07 0.05 0.06 0.00 0.00 0.00 0.01 0.00 0.00 0.00 0.00 0.02 0.02 0.03 0.10 0.18 0.35 0.68
0.00 0.00 0.01 0.01 0.05 0.16 0.11 0.02 0.00 0.00 0.00 0.01 0.02 0.02 0.06 0.06 0.04 0.01 0.00 0.00 0.01 0.00 0.00 0.00 0.00 0.02 0.03 0.05 0.10 0.16 0.24 0.52
0.00 0.00 0.00 0.00 0.00 0.01 0.06 0.06 0.01 0.00 0.00 0.01 0.02 0.01 0.05 0.04 0.04 0.02 0.00 0.00 0.01 0.00 0.01 0.02 0.01 0.02 0.03 0.01 0.03 0.11 0.24 0.47
0.00 0.00 0.00 0.00 0.00 0.00 0.01 0.01 0.01 0.01 0.00 0.00 0.02 0.01 0.02 0.04 0.03 0.02 0.00 0.01 0.00 0.01 0.02 0.00 0.02 0.01 0.01 0.01 0.01 0.07 0.24 0.43
0.00 0.00 0.00 0.00 0.01 0.00 0.01 0.03 0.09 0.02 0.01 0.00 0.01 0.01 0.01 0.01 0.01 0.02 0.01 0.01 0.01 0.02 0.04 0.01 0.03 0.03 0.01 0.00 0.03 0.05 0.14 0.29
0.00 0.00 0.00 0.00 0.02 0.04 0.07 0.06 0.04 0.08 0.03 0.01 0.01 0.01 0.01 0.01 0.01 0.00 0.01 0.01 0.01 0.02 0.03 0.05 0.04 0.03 0.01 0.01 0.01 0.01 0.04 0.18
0.00 0.00 0.00 0.00 0.05 0.08 0.06 0.04 0.11 0.26 0.10 0.01 0.01 0.01 0.00 0.00 0.01 0.00 0.02 0.02 0.01 0.02 0.03 0.04 0.03 0.03 0.04 0.04 0.02 0.02 0.05 0.13
0.00 0.00 0.00 0.01 0.08 0.10 0.09 0.11 0.21 0.26 0.14 0.08 0.01 0.01 0.01 0.00 0.00 0.01 0.02 0.03 0.02 0.02 0.04 0.04 0.03 0.05 0.06 0.07 0.06 0.06 0.07 0.16
0.00 0.00 0.00 0.03 0.10 0.11 0.13 0.13 0.13 0.16 0.12 0.10 0.05 0.01 0.01 0.00 0.00 0.01 0.01 0.02 0.01 0.01 0.04 0.07 0.05 0.05 0.12 0.13 0.11 0.14 0.08 0.14
0.00 0.01 0.00 0.01 0.02 0.16 0.21 0.22 0.17 0.15 0.17 0.15 0.15 0.03 0.00 0.00 0.00 0.00 0.00 0.01 0.01 0.01 0.02 0.02 0.04 0.06 0.09 0.14 0.19 0.36 0.15 0.08
0.00 0.01 0.01 0.07 0.16 0.17 0.23 0.27 0.24 0.22 0.19 0.16 0.18 0.14 0.01 0.00 0.00 0.00 0.00 0.00 0.01 0.01 0.01 0.03 0.04 0.04 0.05 0.07 0.09 0.14 0.09 0.04
0.00 0.01 0.06 0.16 0.30 0.10 0.24 0.16 0.12 0.10 0.13 0.14 0.20 0.21 0.06 0.00 0.00 0.00 0.00 0.01 0.01 0.01 0.02 0.05 0.10 0.11 0.07 0.05 0.05 0.03 0.04 0.07
0.00 0.02 0.08 0.18 0.23 0.17 0.30 0.26 0.18 0.11 0.13 0.17 0.21 0.26 0.13 0.02 0.00 0.01 0.00 0.01 0.01 0.02 0.04 0.08 0.15 0.21 0.16 0.08 0.06 0.05 0.04 0.05
0.01 0.02 0.05 0.20 0.28 0.35 0.39 0.46 0.34 0.19 0.12 0.15 0.21 0.30 0.17 0.05 0.02 0.02 0.02 0.01 0.01 0.02 0.04 0.11 0.20 0.29 0.27 0.23 0.13 0.08 0.05 0.06
0.08 0.05 0.10 0.18 0.36 0.47 0.47 0.83 1.02 0.92 0.59 0.32 0.36 0.45 0.31 0.11 0.02 0.02 0.03 0.03 0.02 0.02 0.08 0.16 0.35 0.36 0.36 0.27 0.18 0.14 0.09 0.08
0.29 0.16 0.20 0.23 0.32 0.46 0.49 0.56 0.73 1.32 1.56 1.72 1.25 0.88 0.67 0.32 0.19 0.17 0.11 0.08 0.08 0.09 0.12 0.23 0.28 0.52 0.51 0.50 0.37 0.24 0.23 0.26

GFSFLT2_prec_precacc24_132.txt.gz
Total_Precipitation_Accumulation
0.00 0.00 0.00 0.00 0.00 0.00 0.00 0.00 0.00 0.00 0.00 0.00 0.01 0.03 0.00 0.00 0.02 0.03 0.00 0.03 0.02 0.00 0.00 0.00 0.00 0.00 0.00 0.01 0.07 0.24 0.37 0.47
0.00 0.01 0.00 0.00 0.00 0.00 0.00 0.00 0.00 0.00 0.00 0.00 0.00 0.03 0.01 0.00 0.00 0.01 0.00 0.01 0.00 0.00 0.00 0.00 0.00 0.01 0.01 0.12 0.23 0.33 0.24 0.40
0.01 0.01 0.01 0.00 0.00 0.00 0.00 0.00 0.00 0.00 0.00 0.00 0.00 0.00 0.00 0.00 0.00 0.01 0.05 0.04 0.01 0.00 0.00 0.00 0.00 0.00 0.06 0.31 0.33 0.28 0.34 0.39
0.00 0.01 0.06 0.06 0.00 0.00 0.00 0.00 0.00 0.00 0.00 0.00 0.00 0.01 0.03 0.02 0.00 0.00 0.00 0.02 0.01 0.00 0.00 0.00 0.00 0.00 0.01 0.08 0.21 0.58 0.65 0.72
0.00 0.00 0.04 0.14 0.17 0.06 0.02 0.01 0.00 0.00 0.00 0.01 0.01 0.02 0.07 0.05 0.06 0.00 0.00 0.00 0.00 0.00 0.00 0.00 0.00 0.02 0.02 0.03 0.10 0.18 0.35 0.64
0.00 0.00 0.01 0.02 0.07 0.19 0.22 0.16 0.07 0.00 0.00 0.01 0.02 0.02 0.06 0.06 0.04 0.01 0.00 0.00 0.00 0.00 0.00 0.00 0.00 0.02 0.03 0.05 0.09 0.12 0.20 0.49
0.00 0.00 0.00 0.00 0.00 0.02 0.10 0.16 0.09 0.07 0.03 0.01 0.02 0.01 0.05 0.04 0.04 0.02 0.00 0.00 0.01 0.00 0.01 0.02 0.01 0.03 0.04 0.01 0.03 0.08 0.19 0.41
0.00 0.00 0.00 0.00 0.00 0.00 0.01 0.03 0.16 0.20 0.09 0.03 0.02 0.01 0.02 0.04 0.03 0.02 0.00 0.01 0.00 0.01 0.02 0.00 0.01 0.01 0.03 0.05 0.01 0.05 0.17 0.37
0.00 0.00 0.00 0.00 0.01 0.00 0.01 0.03 0.15 0.12 0.15 0.15 0.04 0.01 0.01 0.01 0.01 0.02 0.01 0.01 0.01 0.02 0.04 0.01 0.01 0.01 0.02 0.06 0.02 0.02 0.09 0.23
0.00 0.00 0.00 0.00 0.02 0.04 0.07 0.06 0.04 0.10 0.12 0.16 0.10 0.02 0.01 0.01 0.01 0.00 0.01 0.01 0.01 0.02 0.03 0.03 0.02 0.02 0.02 0.02 0.01 0.00 0.02 0.12
0.00 0.00 0.00 0.00 0.05 0.08 0.06 0.04 0.11 0.28 0.19 0.14 0.14 0.15 0.04 0.01 0.01 0.00 0.02 0.02 0.01 0.02 0.03 0.04 0.02 0.02 0.05 0.07 0.05 0.01 0.02 0.06
0.00 0.00 0.00 0.01 0.08 0.10 0.09 0.11 0.21 0.27 0.17 0.17 0.17 0.27 0.24 0.08 0.01 0.01 0.02 0.03 0.02 0.01 0.02 0.02 0.01 0.03 0.06 0.06 0.06 0.03 0.03 0.06
0.00 0.00 0.00 0.03 0.10 0.11 0.13 0.13 0.13 0.16 0.15 0.14 0.22 0.32 0.37 0.22 0.05 0.02 0.02 0.02 0.01 0.01 0.02 0.03 0.03 0.05 0.11 0.10 0.06 0.04 0.04 0.07
0.00 0.01 0.00 0.01 0.02 0.16 0.21 0.22 0.17 0.15 0.18 0.17 0.25 0.30 0.36 0.31 0.14 0.04 0.01 0.01 0.01 0.01 0.02 0.02 0.04 0.06 0.09 0.10 0.12 0.17 0.08 0.06
0.00 0.01 0.01 0.07 0.16 0.17 0.23 0.26 0.24 0.22 0.19 0.16 0.22 0.30 0.29 0.28 0.26 0.11 0.05 0.02 0.01 0.01 0.01 0.02 0.03 0.04 0.05 0.05 0.05 0.06 0.05 0.03
0.00 0.00 0.04 0.15 0.26 0.09 0.24 0.16 0.12 0.10 0.13 0.14 0.21 0.30 0.29 0.27 0.22 0.17 0.07 0.02 0.01 0.01 0.02 0.03 0.04 0.04 0.05 0.04 0.05 0.02 0.02 0.05
0.00 0.01 0.05 0.13 0.15 0.13 0.26 0.25 0.18 0.11 0.13 0.17 0.21 0.29 0.28 0.32 0.38 0.20 0.09 0.05 0.02 0.01 0.01 0.05 0.05 0.04 0.03 0.03 0.05 0.05 0.04 0.03
0.01 0.02 0.04 0.19 0.27 0.34 0.38 0.45 0.34 0.19 0.12 0.15 0.21 0.31 0.26 0.37 0.49 0.65 0.31 0.06 0.02 0.01 0.01 0.04 0.05 0.06 0.07 0.11 0.11 0.07 0.04 0.06
0.08 0.05 0.10 0.18 0.36 0.47 0.46 0.81 1.03 0.93 0.59 0.32 0.36 0.46 0.35 0.33 0.51 0.80 0.51 0.15 0.04 0.04 0.04 0.04 0.06 0.07 0.11 0.16 0.17 0.13 0.07 0.07
0.30 0.17 0.21 0.23 0.32 0.46 0.50 0.54 0.72 1.33 1.56 1.73 1.25 0.89 0.71 0.62 0.71 0.73 0.78 0.41 0.12 0.09 0.08 0.08 0.08 0.16 0.27 0.32 0.31 0.20 0.20 0.25

GFSFLT2_prec_precacc24_135.txt.gz
Total_Precipitation_Accumulation
0.00 0.00 0.00 0.00 0.00 0.00 0.00 0.00 0.00 0.00 0.00 0.00 0.01 0.03 0.00 0.00 0.02 0.03 0.00 0.03 0.02 0.00 0.00 0.00 0.00 0.00 0.00 0.01 0.06 0.22 0.34 0.42
0.00 0.01 0.00 0.00 0.00 0.00 0.00 0.00 0.00 0.00 0.00 0.00 0.00 0.03 0.01 0.00 0.00 0.01 0.00 0.01 0.00 0.00 0.00 0.00 0.00 0.01 0.01 0.10 0.22 0.31 0.23 0.39
0.01 0.01 0.01 0.00 0.00 0.00 0.00 0.00 0.01 0.02 0.01 0.00 0.00 0.00 0.00 0.00 0.00 0.00 0.02 0.03 0.01 0.00 0.00 0.00 0.00 0.00 0.01 0.11 0.27 0.25 0.33 0.39
0.00 0.01 0.06 0.06 0.00 0.00 0.01 0.01 0.00 0.00 0.00 0.00 0.00 0.01 0.03 0.02 0.00 0.00 0.00 0.01 0.00 0.00 0.00 0.00 0.00 0.00 0.00 0.02 0.14 0.46 0.61 0.70
0.00 0.00 0.04 0.14 0.17 0.06 0.03 0.03 0.02 0.01 0.01 0.02 0.01 0.02 0.07 0.05 0.06 0.00 0.00 0.00 0.00 0.00 0.00 0.00 0.00 0.02 0.02 0.03 0.09 0.14 0.30 0.60
0.00 0.00 0.01 0.02 0.07 0.19 0.22 0.17 0.09 0.03 0.07 0.05 0.04 0.03 0.06 0.06 0.04 0.01 0.00 0.00 0.00 0.00 0.00 0.00 0.00 0.02 0.03 0.05 0.09 0.09 0.17 0.39
0.00 0.00 0.00 0.00 0.00 0.02 0.10 0.16 0.09 0.12 0.12 0.11 0.15 0.05 0.05 0.04 0.04 0.02 0.00 0.00 0.01 0.00 0.01 0.02 0.01 0.03 0.04 0.01 0.03 0.08 0.15 0.30
0.00 0.00 0.00 0.00 0.00 0.00 0.01 0.03 0.16 0.22 0.13 0.11 0.24 0.19 0.07 0.04 0.03 0.02 0.00 0.01 0.00 0.01 0.02 0.00 0.01 0.01 0.04 0.05 0.01 0.04 0.12 0.29
0.00 0.00 0.00 0.00 0.01 0.00 0.01 0.03 0.15 0.12 0.16 0.23 0.18 0.23 0.18 0.10 0.02 0.02 0.01 0.01 0.01 0.02 0.04 0.01 0.01 0.01 0.03 0.11 0.07 0.03 0.05 0.14
0.00 0.00 0.00 0.00 0.02 0.04 0.07 0.06 0.04 0.10 0.12 0.16 0.18 0.20 0.22 0.20 0.10 0.01 0.02 0.01 0.01 0.02 0.03 0.03 0.02 0.02 0.02 0.05 0.04 0.05 0.02 0.05
0.00 0.00 0.00 0.00 0.05 0.08 0.06 0.04 0.11 0.28 0.19 0.14 0.15 0.23 0.26 0.23 0.19 0.06 0.04 0.04 0.02 0.03 0.03 0.04 0.02 0.01 0.02 0.08 0.08 0.03 0.02 0.02
0.00 0.00 0.00 0.01 0.08 0.10 0.09 0.11 0.21 0.27 0.17 0.17 0.17 0.28 0.35 0.31 0.24 0.18 0.10 0.07 0.05 0.05 0.05 0.03 0.01 0.02 0.03 0.08 0.09 0.07 0.05 0.02
0.00 0.00 0.00 0.03 0.10 0.11 0.13 0.13 0.13 0.16 0.15 0.14 0.22 0.33 0.40 0.39 0.36 0.29 0.16 0.07 0.03 0.06 0.09 0.06 0.03 0.05 0.09 0.08 0.07 0.07 0.07 0.06
0.00 0.01 0.00 0.01 0.02 0.16 0.21 0.22 0.17 0.15 0.18 0.17 0.25 0.30 0.39 0.40 0.37 0.34 0.22 0.08 0.08 0.09 0.05 0.04 0.05 0.09 0.07 0.08 0.09 0.07 0.04 0.04
0.00 0.01 0.01 0.07 0.15 0.17 0.22 0.26 0.22 0.21 0.19 0.16 0.22 0.30 0.32 0.33 0.40 0.36 0.43 0.32 0.10 0.06 0.05 0.05 0.04 0.06 0.04 0.04 0.05 0.04 0.01 0.01
0.00 0.00 0.04 0.15 0.22 0.06 0.21 0.16 0.12 0.10 0.13 0.14 0.21 0.30 0.29 0.29 0.29 0.52 0.50 0.54 0.18 0.07 0.08 0.08 0.08 0.05 0.05 0.03 0.03 0.01 0.01 0.01
0.00 0.00 0.04 0.11 0.14 0.09 0.18 0.22 0.16 0.11 0.11 0.16 0.21 0.29 0.28 0.32 0.40 0.30 0.66 0.94 0.63 0.19 0.12 0.11 0.07 0.05 0.03 0.02 0.03 0.04 0.03 0.02
0.01 0.02 0.03 0.17 0.23 0.31 0.37 0.45 0.34 0.18 0.11 0.14 0.21 0.31 0.26 0.37 0.50 0.70 0.60 0.68 0.87 0.39 0.17 0.14 0.09 0.09 0.07 0.05 0.03 0.05 0.03 0.06
0.08 0.05 0.10 0.17 0.36 0.45 0.43 0.77 1.04 0.95 0.61 0.33 0.36 0.46 0.35 0.33 0.50 0.83 0.96 0.76 0.82 0.80 0.41 0.19 0.14 0.10 0.07 0.05 0.05 0.04 0.04 0.05
0.30 0.18 0.22 0.24 0.32 0.46 0.48 0.52 0.72 1.31 1.59 1.74 1.26 0.90 0.71 0.62 0.71 0.73 0.84 0.67 0.72 0.74 0.67 0.31 0.16 0.13 0.12 0.12 0.10 0.11 0.15 0.21

GFSFLT2_prec_precacc24_138.txt.gz
Total_Precipitation_Accumulation
0.00 0.00 0.00 0.00 0.00 0.00 0.00 0.00 0.02 0.05 0.03 0.00 0.01 0.03 0.00 0.00 0.02 0.03 0.03 0.06 0.03 0.00 0.00 0.00 0.00 0.00 0.00 0.01 0.06 0.22 0.33 0.42
0.00 0.01 0.00 0.00 0.00 0.00 0.00 0.01 0.01 0.04 0.04 0.04 0.04 0.03 0.01 0.00 0.00 0.01 0.01 0.03 0.00 0.00 0.00 0.00 0.00 0.01 0.00 0.09 0.22 0.31 0.23 0.38
0.01 0.01 0.01 0.00 0.00 0.00 0.00 0.00 0.01 0.04 0.05 0.12 0.10 0.06 0.02 0.00 0.00 0.00 0.02 0.04 0.02 0.00 0.00 0.00 0.00 0.00 0.01 0.10 0.25 0.24 0.30 0.38
0.00 0.01 0.06 0.06 0.00 0.00 0.01 0.01 0.01 0.01 0.04 0.06 0.10 0.10 0.07 0.07 0.01 0.00 0.01 0.01 0.00 0.00 0.00 0.00 0.00 0.00 0.00 0.01 0.08 0.27 0.41 0.54
0.00 0.00 0.04 0.14 0.17 0.06 0.03 0.03 0.02 0.01 0.03 0.07 0.09 0.08 0.13 0.10 0.09 0.01 0.02 0.03 0.01 0.00 0.00 0.00 0.00 0.02 0.02 0.03 0.08 0.08 0.22 0.49
0.00 0.00 0.01 0.02 0.07 0.19 0.22 0.17 0.09 0.03 0.08 0.06 0.07 0.10 0.11 0.10 0.07 0.03 0.01 0.01 0.01 0.00 0.00 0.00 0.00 0.02 0.03 0.05 0.09 0.08 0.14 0.36
0.00 0.00 0.00 0.00 0.00 0.02 0.10 0.16 0.09 0.12 0.12 0.11 0.18 0.12 0.10 0.10 0.09 0.07 0.02 0.01 0.01 0.01 0.01 0.02 0.01 0.03 0.04 0.01 0.03 0.07 0.13 0.24
0.00 0.00 0.00 0.00 0.00 0.00 0.01 0.03 0.16 0.22 0.13 0.11 0.25 0.23 0.16 0.19 0.14 0.10 0.05 0.02 0.02 0.01 0.02 0.01 0.01 0.01 0.04 0.05 0.01 0.04 0.10 0.21
0.00 0.00 0.00 0.00 0.01 0.00 0.01 0.03 0.15 0.12 0.16 0.23 0.19 0.24 0.21 0.21 0.22 0.18 0.07 0.03 0.03 0.04 0.05 0.02 0.01 0.01 0.03 0.11 0.08 0.03 0.05 0.12
0.00 0.00 0.00 0.00 0.02 0.04 0.07 0.06 0.04 0.10 0.12 0.16 0.18 0.21 0.23 0.23 0.23 0.19 0.15 0.08 0.04 0.04 0.04 0.04 0.02 0.02 0.02 0.05 0.04 0.05 0.02 0.05
0.00 0.00 0.00 0.00 0.05 0.08 0.06 0.04 0.11 0.28 0.19 0.14 0.15 0.23 0.27 0.23 0.22 0.16 0.21 0.19 0.07 0.05 0.05 0.06 0.03 0.02 0.02 0.09 0.08 0.03 0.03 0.02
0.00 0.00 0.00 0.01 0.07 0.09 0.09 0.11 0.21 0.27 0.17 0.17 0.17 0.28 0.35 0.31 0.27 0.30 0.28 0.19 0.12 0.08 0.09 0.08 0.04 0.03 0.05 0.08 0.09 0.08 0.07 0.03
0.00 0.00 0.00 0.03 0.10 0.11 0.13 0.13 0.13 0.16 0.15 0.14 0.22 0.33 0.40 0.39 0.37 0.39 0.44 0.45 0.31 0.11 0.13 0.12 0.06 0.10 0.14 0.10 0.08 0.09 0.11 0.09
0.00 0.01 0.00 0.00 0.02 0.14 0.20 0.22 0.17 0.15 0.18 0.17 0.25 0.30 0.39 0.40 0.37 0.36 0.41 0.60 0.72 0.45 0.11 0.05 0.08 0.16 0.09 0.08 0.07 0.06 0.04 0.06
0.00 0.01 0.01 0.05 0.13 0.14 0.19 0.25 0.22 0.20 0.19 0.16 0.22 0.30 0.32 0.33 0.40 0.36 0.48 0.67 0.79 0.65 0.22 0.07 0.05 0.12 0.09 0.04 0.02 0.02 0.01 0.01
0.00 0.00 0.04 0.15 0.22 0.05 0.19 0.15 0.12 0.10 0.13 0.13 0.21 0.30 0.29 0.29 0.29 0.52 0.51 0.73 0.94 0.82 0.65 0.28 0.19 0.12 0.13 0.06 0.01 0.01 0.01 0.01
0.00 0.00 0.04 0.11 0.14 0.08 0.18 0.21 0.13 0.10 0.11 0.15 0.18 0.28 0.28 0.32 0.40 0.30 0.66 0.95 0.98 1.01 1.10 0.72 0.27 0.18 0.09 0.05 0.02 0.02 0.01 0.01
0.01 0.01 0.03 0.16 0.22 0.29 0.37 0.45 0.35 0.19 0.11 0.14 0.20 0.30 0.26 0.37 0.50 0.70 0.60 0.68 0.94 0.95 1.06 0.91 0.57 0.31 0.22 0.13 0.04 0.02 0.02 0.04
0.08 0.05 0.10 0.17 0.34 0.43 0.41 0.76 1.04 0.95 0.61 0.34 0.37 0.47 0.36 0.33 0.51 0.82 0.96 0.76 0.81 0.88 0.84 1.07 0.77 0.43 0.24 0.15 0.09 0.03 0.02 0.02
0.30 0.18 0.21 0.23 0.31 0.43 0.47 0.51 0.72 1.32 1.59 1.76 1.27 0.91 0.72 0.62 0.71 0.73 0.84 0.67 0.71 0.74 0.86 0.86 0.90 0.86 0.40 0.31 0.18 0.09 0.06 0.10

GFSFLT2_prec_precacc24_144.txt.gz
Total_Precipitation_Accumulation
0.00 0.00 0.00 0.00 0.00 0.00 0.00 0.02 0.04 0.07 0.07 0.10 0.14 0.14 0.10 0.07 0.07 0.09 0.07 0.08 0.06 0.02 0.00 0.00 0.00 0.00 0.00 0.00 0.04 0.08 0.27 0.39
0.00 0.01 0.00 0.00 0.00 0.00 0.00 0.01 0.02 0.06 0.06 0.11 0.14 0.16 0.16 0.10 0.09 0.07 0.07 0.09 0.04 0.03 0.02 0.00 0.00 0.00 0.00 0.04 0.04 0.06 0.14 0.32
0.01 0.01 0.01 0.00 0.00 0.00 0.00 0.00 0.01 0.05 0.07 0.16 0.16 0.18 0.22 0.17 0.11 0.11 0.12 0.12 0.08 0.06 0.03 0.01 0.00 0.00 0.00 0.00 0.00 0.04 0.13 0.25
0.00 0.01 0.06 0.06 0.00 0.00 0.01 0.01 0.01 0.01 0.05 0.11 0.16 0.14 0.23 0.22 0.14 0.14 0.12 0.14 0.10 0.13 0.05 0.04 0.01 0.00 0.00 0.00 0.01 0.08 0.15 0.24
0.00 0.00 0.04 0.14 0.17 0.06 0.03 0.03 0.02 0.01 0.03 0.07 0.10 0.07 0.13 0.19 0.17 0.16 0.13 0.20 0.15 0.13 0.10 0.05 0.00 0.01 0.02 0.00 0.02 0.04 0.08 0.25
0.00 0.00 0.01 0.02 0.07 0.19 0.22 0.17 0.08 0.02 0.08 0.06 0.07 0.10 0.13 0.12 0.10 0.08 0.12 0.11 0.08 0.08 0.06 0.04 0.02 0.02 0.03 0.04 0.05 0.04 0.06 0.20
0.00 0.00 0.00 0.00 0.00 0.02 0.09 0.16 0.08 0.12 0.12 0.11 0.17 0.12 0.10 0.11 0.11 0.13 0.11 0.10 0.10 0.08 0.08 0.09 0.07 0.06 0.06 0.02 0.02 0.05 0.05 0.11
0.00 0.00 0.00 0.00 0.00 0.00 0.01 0.03 0.16 0.21 0.13 0.11 0.25 0.23 0.16 0.20 0.15 0.14 0.13 0.09 0.07 0.08 0.08 0.06 0.09 0.06 0.06 0.06 0.01 0.02 0.04 0.07
0.00 0.00 0.00 0.00 0.01 0.00 0.01 0.03 0.15 0.11 0.16 0.23 0.19 0.24 0.21 0.21 0.22 0.19 0.12 0.09 0.10 0.10 0.15 0.13 0.11 0.08 0.06 0.12 0.09 0.02 0.02 0.04
0.00 0.00 0.00 0.00 0.02 0.04 0.07 0.06 0.04 0.10 0.12 0.16 0.17 0.21 0.23 0.23 0.23 0.20 0.16 0.12 0.10 0.12 0.14 0.15 0.10 0.06 0.03 0.06 0.07 0.06 0.03 0.03
0.00 0.00 0.00 0.00 0.05 0.08 0.06 0.04 0.11 0.28 0.19 0.14 0.15 0.23 0.27 0.23 0.22 0.16 0.21 0.21 0.14 0.18 0.22 0.21 0.14 0.07 0.03 0.09 0.12 0.05 0.04 0.02
0.00 0.00 0.00 0.01 0.07 0.09 0.08 0.11 0.21 0.27 0.17 0.17 0.17 0.28 0.35 0.31 0.27 0.30 0.28 0.20 0.21 0.36 0.35 0.29 0.18 0.08 0.09 0.11 0.11 0.13 0.10 0.04
0.00 0.00 0.00 0.02 0.10 0.11 0.12 0.11 0.13 0.16 0.15 0.14 0.22 0.33 0.40 0.39 0.37 0.39 0.44 0.45 0.37 0.33 0.42 0.54 0.32 0.31 0.40 0.27 0.15 0.15 0.18 0.12
0.00 0.00 0.00 0.00 0.02 0.07 0.14 0.19 0.17 0.15 0.18 0.17 0.25 0.30 0.39 0.40 0.38 0.36 0.42 0.61 0.73 0.77 0.73 0.69 0.41 0.44 0.47 0.42 0.47 0.21 0.08 0.09
0.00 0.00 0.00 0.00 0.00 0.03 0.14 0.22 0.21 0.20 0.19 0.17 0.22 0.30 0.32 0.34 0.40 0.37 0.49 0.68 0.80 0.76 0.82 0.86 0.88 0.83 0.44 0.46 0.45 0.23 0.03 0.02
0.00 0.00 0.00 0.01 0.01 0.03 0.14 0.13 0.11 0.11 0.13 0.14 0.21 0.30 0.30 0.29 0.29 0.52 0.51 0.73 0.95 0.86 0.76 0.66 0.76 0.77 0.91 0.72 0.50 0.29 0.11 0.04
0.00 0.00 0.00 0.04 0.09 0.05 0.14 0.19 0.11 0.10 0.11 0.15 0.18 0.26 0.28 0.33 0.40 0.30 0.66 0.95 0.98 1.01 1.13 1.00 0.72 0.63 0.65 0.55 0.65 0.55 0.33 0.11
0.01 0.01 0.02 0.03 0.09 0.16 0.21 0.31 0.33 0.20 0.12 0.14 0.20 0.30 0.26 0.38 0.50 0.71 0.61 0.69 0.94 0.95 1.06 0.99 1.01 0.86 0.80 0.56 0.33 0.38 0.33 0.21
0.08 0.04 0.08 0.09 0.19 0.21 0.29 0.57 0.92 0.96 0.62 0.35 0.37 0.45 0.35 0.33 0.51 0.83 0.97 0.76 0.82 0.88 0.84 1.08 0.92 0.83 0.66 0.62 0.49 0.26 0.19 0.17
0.27 0.17 0.21 0.22 0.27 0.31 0.40 0.43 0.70 1.32 1.60 1.75 1.24 0.90 0.72 0.60 0.65 0.65 0.78 0.64 0.71 0.74 0.86 0.85 0.91 0.95 0.76 0.72 0.71 0.51 0.34 0.27

GFSFLT2_prec_precacc24_147.txt.gz
Total_Precipitation_Accumulation
0.00 0.00 0.00 0.00 0.00 0.00 0.00 0.02 0.04 0.07 0.07 0.10 0.13 0.12 0.10 0.07 0.07 0.12 0.12 0.10 0.05 0.02 0.00 0.00 0.00 0.00 0.00 0.00 0.00 0.01 0.15 0.27
0.00 0.01 0.00 0.00 0.00 0.00 0.00 0.01 0.02 0.06 0.06 0.11 0.14 0.15 0.16 0.13 0.09 0.07 0.08 0.11 0.06 0.04 0.02 0.01 0.01 0.00 0.00 0.00 0.00 0.00 0.04 0.21
0.01 0.01 0.01 0.00 0.00 0.00 0.00 0.00 0.01 0.05 0.07 0.16 0.16 0.18 0.24 0.23 0.26 0.19 0.16 0.12 0.10 0.10 0.06 0.05 0.05 0.01 0.00 0.00 0.00 0.00 0.00 0.12
0.00 0.01 0.05 0.06 0.00 0.00 0.01 0.01 0.01 0.01 0.05 0.11 0.16 0.14 0.22 0.21 0.20 0.23 0.19 0.16 0.10 0.14 0.09 0.08 0.05 0.01 0.00 0.00 0.00 0.00 0.05 0.11
0.00 0.00 0.03 0.14 0.17 0.06 0.03 0.03 0.02 0.01 0.03 0.07 0.09 0.06 0.09 0.15 0.13 0.23 0.21 0.38 0.19 0.13 0.10 0.08 0.00 0.01 0.00 0.00 0.00 0.02 0.04 0.14
0.00 0.00 0.01 0.02 0.07 0.19 0.22 0.17 0.08 0.02 0.08 0.05 0.06 0.09 0.10 0.09 0.09 0.08 0.13 0.16 0.21 0.25 0.14 0.07 0.02 0.02 0.01 0.00 0.01 0.03 0.05 0.12
0.00 0.00 0.00 0.00 0.00 0.02 0.09 0.16 0.08 0.12 0.11 0.10 0.16 0.11 0.08 0.09 0.10 0.12 0.11 0.10 0.13 0.16 0.27 0.26 0.17 0.10 0.10 0.02 0.00 0.02 0.03 0.05
0.00 0.00 0.00 0.00 0.00 0.00 0.01 0.03 0.16 0.21 0.13 0.10 0.23 0.22 0.15 0.19 0.14 0.13 0.13 0.09 0.07 0.10 0.15 0.23 0.33 0.22 0.13 0.10 0.01 0.00 0.03 0.04
0.00 0.00 0.00 0.00 0.01 0.00 0.01 0.03 0.15 0.11 0.16 0.23 0.18 0.24 0.21 0.21 0.22 0.19 0.12 0.09 0.09 0.09 0.13 0.18 0.24 0.26 0.20 0.22 0.13 0.02 0.01 0.02
0.00 0.00 0.00 0.00 0.02 0.04 0.07 0.06 0.04 0.10 0.12 0.16 0.17 0.21 0.23 0.23 0.23 0.20 0.15 0.11 0.10 0.11 0.13 0.15 0.14 0.14 0.14 0.18 0.13 0.07 0.02 0.02
0.00 0.00 0.00 0.00 0.04 0.08 0.06 0.04 0.11 0.28 0.19 0.14 0.15 0.22 0.27 0.23 0.22 0.16 0.21 0.20 0.14 0.17 0.22 0.21 0.15 0.09 0.07 0.15 0.22 0.10 0.04 0.02
0.00 0.00 0.00 0.00 0.03 0.08 0.08 0.11 0.21 0.27 0.17 0.17 0.17 0.28 0.35 0.31 0.27 0.30 0.28 0.19 0.20 0.36 0.35 0.28 0.19 0.09 0.10 0.12 0.13 0.20 0.14 0.04
0.00 0.00 0.00 0.00 0.01 0.06 0.11 0.11 0.13 0.16 0.15 0.14 0.22 0.32 0.40 0.39 0.37 0.39 0.44 0.45 0.37 0.33 0.42 0.54 0.32 0.32 0.43 0.31 0.21 0.25 0.32 0.17
0.00 0.00 0.00 0.00 0.00 0.03 0.11 0.19 0.17 0.15 0.18 0.17 0.25 0.30 0.39 0.40 0.38 0.37 0.42 0.61 0.73 0.77 0.72 0.69 0.41 0.44 0.49 0.47 0.58 0.47 0.24 0.22
0.00 0.00 0.00 0.00 0.00 0.01 0.07 0.21 0.21 0.20 0.19 0.17 0.22 0.30 0.32 0.34 0.40 0.37 0.49 0.68 0.81 0.76 0.82 0.86 0.89 0.84 0.46 0.51 0.48 0.48 0.45 0.38
0.00 0.00 0.00 0.00 0.00 0.01 0.08 0.11 0.11 0.11 0.13 0.14 0.21 0.30 0.30 0.29 0.30 0.52 0.52 0.74 0.96 0.86 0.76 0.66 0.77 0.78 0.94 0.77 0.55 0.33 0.19 0.17
0.00 0.00 0.00 0.00 0.00 0.01 0.07 0.12 0.11 0.10 0.11 0.15 0.18 0.26 0.28 0.33 0.41 0.31 0.67 0.96 0.99 1.02 1.14 1.00 0.72 0.65 0.67 0.57 0.70 0.58 0.36 0.34
0.00 0.00 0.00 0.00 0.00 0.02 0.09 0.14 0.17 0.12 0.11 0.14 0.20 0.30 0.26 0.38 0.50 0.71 0.61 0.69 0.95 0.96 1.07 0.99 1.01 0.87 0.82 0.59 0.37 0.41 0.34 0.26
0.02 0.02 0.01 0.01 0.02 0.03 0.11 0.21 0.32 0.44 0.31 0.25 0.35 0.43 0.35 0.33 0.51 0.83 0.97 0.76 0.82 0.88 0.84 1.08 0.93 0.84 0.67 0.65 0.53 0.28 0.20 0.17
0.13 0.11 0.10 0.07 0.05 0.06 0.08 0.16 0.31 0.86 0.91 1.07 1.15 0.90 0.72 0.60 0.63 0.64 0.78 0.63 0.70 0.73 0.86 0.86 0.92 0.98 0.78 0.75 0.74 0.54 0.36 0.27

GFSFLT2_prec_precacc24_153.txt.gz
Total_Precipitation_Accumulation
0.00 0.00 0.00 0.00 0.00 0.00 0.00 0.02 0.04 0.07 0.07 0.10 0.13 0.12 0.10 0.07 0.06 0.10 0.12 0.09 0.05 0.03 0.02 0.02 0.00 0.00 0.00 0.00 0.00 0.00 0.00 0.02
0.00 0.00 0.00 0.00 0.00 0.00 0.00 0.01 0.02 0.06 0.06 0.11 0.14 0.15 0.16 0.14 0.12 0.09 0.13 0.13 0.06 0.04 0.03 0.03 0.02 0.00 0.00 0.00 0.00 0.00 0.00 0.00
0.00 0.00 0.00 0.00 0.00 0.00 0.00 0.00 0.01 0.05 0.07 0.16 0.16 0.18 0.24 0.24 0.29 0.26 0.22 0.11 0.10 0.11 0.06 0.06 0.07 0.01 0.00 0.00 0.00 0.00 0.00 0.00
0.00 0.00 0.00 0.01 0.00 0.00 0.01 0.01 0.01 0.01 0.05 0.11 0.16 0.14 0.22 0.21 0.20 0.24 0.23 0.24 0.19 0.16 0.09 0.08 0.05 0.01 0.00 0.00 0.00 0.00 0.01 0.02
0.00 0.00 0.00 0.02 0.05 0.02 0.03 0.03 0.02 0.01 0.03 0.07 0.09 0.06 0.08 0.14 0.12 0.23 0.21 0.40 0.21 0.15 0.12 0.14 0.04 0.01 0.00 0.03 0.01 0.02 0.00 0.01
0.00 0.00 0.00 0.00 0.02 0.03 0.11 0.16 0.08 0.02 0.07 0.05 0.05 0.08 0.08 0.07 0.06 0.07 0.12 0.16 0.22 0.28 0.18 0.18 0.13 0.09 0.04 0.05 0.15 0.13 0.03 0.06
0.00 0.00 0.00 0.00 0.00 0.00 0.04 0.10 0.07 0.12 0.11 0.10 0.16 0.10 0.06 0.07 0.07 0.11 0.11 0.10 0.12 0.16 0.27 0.30 0.24 0.19 0.15 0.11 0.15 0.23 0.16 0.03
0.00 0.00 0.00 0.00 0.00 0.00 0.00 0.01 0.15 0.21 0.13 0.10 0.23 0.21 0.13 0.16 0.13 0.12 0.12 0.08 0.06 0.09 0.15 0.23 0.34 0.29 0.25 0.19 0.04 0.14 0.18 0.21
0.00 0.00 0.00 0.00 0.00 0.00 0.00 0.00 0.05 0.10 0.15 0.22 0.17 0.23 0.20 0.20 0.21 0.17 0.12 0.09 0.08 0.08 0.12 0.18 0.23 0.26 0.25 0.30 0.17 0.03 0.05 0.20
0.00 0.00 0.00 0.00 0.00 0.00 0.00 0.00 0.00 0.02 0.09 0.16 0.17 0.20 0.22 0.21 0.22 0.19 0.15 0.11 0.09 0.10 0.12 0.14 0.12 0.14 0.14 0.21 0.19 0.11 0.04 0.04
0.00 0.00 0.00 0.00 0.00 0.00 0.00 0.00 0.00 0.02 0.09 0.13 0.14 0.21 0.26 0.23 0.21 0.16 0.20 0.20 0.14 0.16 0.20 0.19 0.14 0.09 0.07 0.15 0.26 0.19 0.09 0.04
0.00 0.00 0.00 0.00 0.00 0.00 0.00 0.00 0.00 0.00 0.03 0.09 0.16 0.27 0.34 0.31 0.27 0.30 0.26 0.18 0.20 0.34 0.34 0.27 0.19 0.09 0.10 0.12 0.13 0.22 0.21 0.14
0.00 0.00 0.00 0.00 0.00 0.00 0.00 0.00 0.00 0.00 0.02 0.04 0.16 0.32 0.39 0.39 0.37 0.38 0.43 0.45 0.37 0.33 0.41 0.52 0.31 0.31 0.42 0.30 0.21 0.27 0.34 0.23
0.00 0.00 0.00 0.00 0.00 0.00 0.00 0.00 0.00 0.00 0.00 0.02 0.10 0.27 0.38 0.40 0.38 0.37 0.42 0.62 0.73 0.77 0.72 0.69 0.39 0.42 0.48 0.47 0.58 0.48 0.25 0.26
0.00 0.00 0.00 0.00 0.00 0.00 0.00 0.00 0.00 0.00 0.00 0.00 0.03 0.16 0.31 0.34 0.40 0.38 0.50 0.69 0.81 0.76 0.83 0.87 0.89 0.83 0.46 0.52 0.51 0.49 0.45 0.39
0.00 0.00 0.00 0.00 0.00 0.00 0.00 0.01 0.01 0.00 0.00 0.00 0.01 0.09 0.24 0.29 0.29 0.52 0.52 0.74 0.97 0.87 0.76 0.66 0.78 0.78 0.94 0.78 0.57 0.36 0.23 0.19
0.00 0.00 0.00 0.00 0.00 0.00 0.01 0.01 0.01 0.01 0.01 0.01 0.00 0.03 0.15 0.31 0.40 0.30 0.67 0.96 0.99 1.02 1.14 1.00 0.73 0.65 0.67 0.58 0.71 0.61 0.41 0.40
0.00 0.00 0.00 0.00 0.00 0.01 0.02 0.03 0.03 0.03 0.02 0.01 0.01 0.01 0.10 0.34 0.49 0.71 0.61 0.69 0.95 0.96 1.07 0.99 1.01 0.87 0.83 0.60 0.39 0.44 0.38 0.29
0.00 0.00 0.00 0.00 0.00 0.00 0.02 0.04 0.05 0.06 0.05 0.04 0.03 0.04 0.07 0.25 0.50 0.83 0.96 0.76 0.82 0.88 0.84 1.08 0.94 0.87 0.69 0.66 0.53 0.30 0.24 0.24
0.01 0.02 0.02 0.01 0.00 0.01 0.02 0.02 0.05 0.05 0.06 0.07 0.06 0.06 0.07 0.32 0.55 0.59 0.76 0.62 0.66 0.69 0.83 0.84 0.91 0.98 0.78 0.75 0.75 0.56 0.37 0.30

GFSFLT2_prec_precacc24_156.txt.gz
Total_Precipitation_Accumulation
0.00 0.00 0.00 0.00 0.00 0.00 0.00 0.02 0.04 0.07 0.07 0.10 0.13 0.12 0.10 0.07 0.06 0.10 0.12 0.09 0.05 0.03 0.02 0.02 0.00 0.02 0.01 0.01 0.00 0.01 0.00 0.00
0.00 0.00 0.00 0.00 0.00 0.00 0.00 0.01 0.02 0.06 0.06 0.11 0.14 0.15 0.16 0.14 0.12 0.09 0.13 0.13 0.06 0.04 0.03 0.03 0.02 0.01 0.01 0.02 0.02 0.01 0.00 0.00
0.00 0.00 0.00 0.00 0.00 0.00 0.00 0.00 0.01 0.05 0.07 0.16 0.16 0.18 0.24 0.24 0.29 0.26 0.22 0.11 0.10 0.11 0.06 0.06 0.07 0.01 0.00 0.00 0.04 0.01 0.02 0.00
0.00 0.00 0.00 0.00 0.00 0.00 0.01 0.01 0.01 0.01 0.05 0.11 0.16 0.14 0.22 0.21 0.20 0.24 0.23 0.24 0.19 0.16 0.09 0.08 0.05 0.01 0.00 0.01 0.01 0.02 0.04 0.01
0.00 0.00 0.00 0.00 0.00 0.00 0.01 0.03 0.02 0.01 0.03 0.07 0.09 0.06 0.08 0.14 0.12 0.23 0.21 0.40 0.21 0.15 0.12 0.14 0.04 0.01 0.00 0.04 0.01 0.04 0.00 0.01
0.00 0.00 0.00 0.00 0.00 0.00 0.00 0.01 0.02 0.02 0.07 0.05 0.05 0.08 0.08 0.07 0.06 0.07 0.12 0.16 0.22 0.28 0.18 0.18 0.13 0.09 0.04 0.05 0.16 0.15 0.04 0.06
0.00 0.00 0.00 0.00 0.00 0.00 0.00 0.00 0.00 0.05 0.08 0.10 0.16 0.10 0.06 0.07 0.07 0.11 0.11 0.10 0.12 0.16 0.27 0.30 0.24 0.18 0.13 0.11 0.15 0.25 0.20 0.08
0.00 0.00 0.00 0.00 0.00 0.00 0.00 0.00 0.00 0.01 0.04 0.08 0.23 0.21 0.13 0.16 0.13 0.12 0.12 0.08 0.06 0.09 0.15 0.23 0.34 0.29 0.23 0.15 0.04 0.14 0.19 0.26
0.00 0.00 0.00 0.00 0.00 0.00 0.00 0.00 0.00 0.00 0.00 0.08 0.15 0.23 0.20 0.20 0.21 0.17 0.12 0.09 0.08 0.08 0.12 0.18 0.23 0.26 0.24 0.24 0.16 0.03 0.05 0.21
0.00 0.00 0.00 0.00 0.00 0.00 0.00 0.00 0.00 0.00 0.00 0.01 0.08 0.18 0.22 0.21 0.22 0.19 0.15 0.11 0.09 0.10 0.12 0.14 0.12 0.13 0.13 0.19 0.18 0.10 0.04 0.04
0.00 0.00 0.00 0.00 0.00 0.00 0.00 0.00 0.00 0.00 0.00 0.00 0.01 0.08 0.23 0.22 0.21 0.16 0.20 0.20 0.13 0.16 0.20 0.19 0.13 0.08 0.06 0.10 0.22 0.19 0.09 0.04
0.00 0.00 0.00 0.00 0.00 0.00 0.00 0.00 0.00 0.00 0.00 0.00 0.00 0.01 0.11 0.23 0.26 0.29 0.26 0.18 0.19 0.34 0.34 0.27 0.19 0.08 0.09 0.10 0.09 0.19 0.20 0.12
0.00 0.00 0.00 0.00 0.00 0.00 0.00 0.00 0.00 0.00 0.00 0.00 0.00 0.00 0.03 0.17 0.31 0.37 0.42 0.44 0.37 0.33 0.41 0.52 0.31 0.30 0.41 0.30 0.20 0.25 0.32 0.21
0.00 0.00 0.00 0.00 0.00 0.00 0.00 0.00 0.00 0.00 0.00 0.00 0.00 0.00 0.03 0.09 0.24 0.33 0.41 0.61 0.73 0.77 0.72 0.69 0.39 0.42 0.48 0.47 0.57 0.47 0.25 0.24
0.00 0.00 0.00 0.00 0.00 0.00 0.00 0.00 0.00 0.00 0.00 0.00 0.00 0.00 0.03 0.06 0.15 0.27 0.45 0.67 0.81 0.77 0.83 0.87 0.89 0.83 0.46 0.53 0.51 0.49 0.45 0.39
0.00 0.00 0.00 0.00 0.00 0.00 0.00 0.01 0.01 0.00 0.00 0.00 0.00 0.00 0.01 0.03 0.07 0.35 0.46 0.73 0.96 0.86 0.77 0.67 0.78 0.78 0.94 0.78 0.58 0.37 0.24 0.20
0.00 0.00 0.00 0.00 0.00 0.00 0.01 0.01 0.01 0.01 0.01 0.01 0.00 0.00 0.00 0.01 0.03 0.11 0.59 0.92 0.98 1.02 1.14 1.01 0.73 0.66 0.67 0.58 0.72 0.61 0.41 0.40
0.00 0.00 0.00 0.00 0.00 0.00 0.01 0.03 0.03 0.03 0.02 0.01 0.01 0.00 0.01 0.01 0.02 0.07 0.31 0.64 0.94 0.96 1.07 1.00 1.02 0.89 0.84 0.60 0.39 0.44 0.38 0.30
0.00 0.00 0.00 0.00 0.00 0.00 0.02 0.03 0.04 0.05 0.05 0.04 0.03 0.02 0.02 0.02 0.02 0.05 0.48 0.64 0.80 0.86 0.84 1.09 0.95 0.89 0.71 0.67 0.54 0.31 0.26 0.25
0.00 0.00 0.01 0.00 0.00 0.00 0.01 0.02 0.04 0.04 0.06 0.06 0.06 0.05 0.04 0.02 0.02 0.02 0.09 0.29 0.62 0.68 0.83 0.84 0.91 0.99 0.79 0.77 0.76 0.57 0.39 0.32

GFSFLT2_prec_precacc24_162.txt.gz
Total_Precipitation_Accumulation
0.00 0.00 0.00 0.00 0.00 0.00 0.00 0.01 0.02 0.02 0.04 0.09 0.13 0.12 0.10 0.07 0.06 0.09 0.09 0.06 0.04 0.03 0.02 0.02 0.00 0.02 0.03 0.06 0.10 0.05 0.00 0.00
0.00 0.00 0.00 0.00 0.00 0.00 0.00 0.00 0.01 0.02 0.02 0.07 0.11 0.14 0.16 0.14 0.12 0.09 0.12 0.12 0.06 0.04 0.03 0.03 0.02 0.01 0.01 0.03 0.05 0.06 0.01 0.00
0.00 0.00 0.00 0.00 0.00 0.00 0.00 0.00 0.00 0.01 0.02 0.04 0.06 0.13 0.22 0.24 0.29 0.26 0.22 0.10 0.09 0.11 0.06 0.06 0.07 0.01 0.00 0.00 0.05 0.02 0.04 0.00
0.00 0.00 0.00 0.00 0.00 0.00 0.00 0.00 0.00 0.00 0.01 0.05 0.07 0.05 0.17 0.16 0.20 0.24 0.23 0.23 0.19 0.16 0.09 0.08 0.05 0.01 0.00 0.01 0.02 0.02 0.06 0.02
0.00 0.00 0.00 0.00 0.00 0.00 0.00 0.00 0.00 0.00 0.00 0.00 0.01 0.00 0.02 0.10 0.09 0.22 0.19 0.37 0.20 0.15 0.12 0.14 0.04 0.01 0.00 0.04 0.01 0.05 0.01 0.02
0.00 0.00 0.00 0.00 0.00 0.00 0.00 0.00 0.00 0.00 0.00 0.00 0.00 0.00 0.03 0.03 0.03 0.05 0.11 0.15 0.21 0.27 0.18 0.18 0.13 0.09 0.04 0.05 0.16 0.15 0.05 0.07
0.00 0.00 0.00 0.00 0.00 0.00 0.00 0.00 0.00 0.00 0.00 0.00 0.00 0.00 0.01 0.01 0.01 0.06 0.09 0.09 0.11 0.16 0.27 0.30 0.24 0.18 0.13 0.11 0.15 0.25 0.20 0.09
0.00 0.00 0.00 0.00 0.00 0.00 0.00 0.00 0.00 0.00 0.00 0.00 0.00 0.00 0.00 0.01 0.01 0.04 0.08 0.07 0.05 0.09 0.14 0.23 0.34 0.29 0.22 0.15 0.04 0.14 0.19 0.26
0.00 0.00 0.00 0.00 0.00 0.00 0.00 0.00 0.00 0.00 0.00 0.00 0.00 0.00 0.00 0.00 0.00 0.01 0.05 0.06 0.07 0.06 0.11 0.17 0.22 0.26 0.23 0.19 0.10 0.02 0.05 0.21
0.00 0.00 0.00 0.00 0.00 0.00 0.00 0.00 0.00 0.00 0.00 0.00 0.00 0.00 0.00 0.00 0.00 0.00 0.01 0.04 0.06 0.08 0.10 0.13 0.12 0.13 0.13 0.17 0.15 0.06 0.02 0.03
0.00 0.00 0.00 0.00 0.00 0.00 0.00 0.00 0.00 0.00 0.00 0.00 0.00 0.00 0.00 0.00 0.00 0.00 0.00 0.03 0.07 0.13 0.17 0.17 0.12 0.07 0.05 0.07 0.19 0.16 0.07 0.03
0.00 0.00 0.00 0.00 0.00 0.00 0.00 0.00 0.00 0.00 0.00 0.00 0.00 0.00 0.00 0.00 0.00 0.00 0.00 0.01 0.09 0.28 0.27 0.21 0.16 0.07 0.06 0.05 0.05 0.14 0.15 0.11
0.00 0.00 0.00 0.00 0.00 0.00 0.00 0.00 0.00 0.00 0.00 0.00 0.00 0.00 0.00 0.00 0.00 0.00 0.00 0.01 0.07 0.23 0.30 0.43 0.27 0.23 0.30 0.23 0.15 0.18 0.25 0.15
0.00 0.00 0.00 0.00 0.00 0.00 0.00 0.00 0.00 0.00 0.00 0.00 0.00 0.00 0.00 0.00 0.00 0.01 0.01 0.02 0.02 0.33 0.63 0.66 0.34 0.29 0.43 0.42 0.54 0.44 0.22 0.21
0.00 0.00 0.00 0.00 0.00 0.00 0.00 0.00 0.00 0.00 0.00 0.00 0.00 0.00 0.00 0.00 0.01 0.02 0.02 0.02 0.03 0.12 0.62 0.81 0.86 0.74 0.39 0.52 0.53 0.49 0.45 0.39
0.00 0.00 0.00 0.00 0.00 0.00 0.00 0.00 0.00 0.00 0.00 0.00 0.00 0.00 0.00 0.01 0.01 0.01 0.02 0.02 0.03 0.05 0.12 0.41 0.62 0.69 0.82 0.74 0.60 0.40 0.26 0.20
0.00 0.00 0.00 0.00 0.00 0.00 0.00 0.00 0.00 0.00 0.00 0.00 0.00 0.00 0.00 0.00 0.01 0.01 0.01 0.02 0.02 0.02 0.05 0.31 0.49 0.50 0.61 0.54 0.72 0.62 0.42 0.42
0.00 0.00 0.00 0.00 0.00 0.00 0.00 0.01 0.01 0.01 0.01 0.01 0.00 0.00 0.01 0.01 0.01 0.02 0.02 0.02 0.02 0.01 0.02 0.11 0.46 0.61 0.65 0.50 0.38 0.47 0.41 0.32
0.00 0.00 0.00 0.00 0.00 0.00 0.01 0.01 0.01 0.02 0.02 0.02 0.01 0.02 0.01 0.02 0.01 0.02 0.02 0.02 0.02 0.01 0.03 0.04 0.20 0.49 0.52 0.56 0.48 0.32 0.29 0.28
0.00 0.00 0.00 0.00 0.00 0.00 0.01 0.01 0.02 0.02 0.02 0.03 0.03 0.04 0.03 0.02 0.02 0.02 0.02 0.02 0.01 0.01 0.03 0.04 0.06 0.18 0.46 0.52 0.64 0.51 0.41 0.34